{"data":{"norad_id":58458,"intl_designator":"2023-183X","name":"STARLINK-30962","alt_names":[],"object_type":"PAYLOAD","status":"ACTIVE","operator":null,"country":"US","launch_date":"2023-11-28","launch_site_code":"AFETR","launch_vehicle":null,"mission":null,"orbit_class":"UNKNOWN","rcs_meters":null,"size_class":null,"mass_kg":null,"dimensions":null,"purposes":["comms"],"wikipedia_slug":null,"has_3d_model":false,"image_url":null,"decayed_at":null,"tle_current":{"epoch":"2026-05-24T21:24:59.699232Z","epoch_age_seconds":77566,"freshness":"FRESH","line1":"1 58458U 23183X   26144.89235763 -.00000102  00000+0  58259-5 0  9994","line2":"2 58458  43.0072 330.8282 0001651 268.1762  91.8901 15.27574698138395","mean_motion":15.27574698,"eccentricity":0.0001651,"inclination_deg":43.0072,"raan_deg":330.8282,"arg_perigee_deg":268.1762,"mean_anomaly_deg":91.8901,"bstar":5.8259e-6,"rev_number":13839,"period_min":94.267075900468,"perigee_km":481.93218773535,"apogee_km":484.19775662656,"semimajor_km":6861.201972181,"source":"CELESTRAK","updated_at":"2026-05-25T13:38:18.626135Z"}}}